Time,TemperatureF,DewpointF,PressureIn,WindDirection,WindDirectionDegrees,WindSpeedMPH,WindSpeedGustMPH,Humidity,HourlyPrecipIn,Conditions,Clouds,dailyrainin,SoftwareType,DateUTC
2013-07-07 00:02:00,64.9,57.9,30.32,SW,227,0.0,1.0,78,0.00,,,0.00,meteohub,2013-07-06 22:02:00,
2013-07-07 00:16:00,64.8,57.7,30.32,SW,227,0.0,1.0,78,0.00,,,0.00,meteohub,2013-07-06 22:16:00,
2013-07-07 00:22:00,64.6,57.6,30.32,SW,227,0.0,2.0,78,0.00,,,0.00,meteohub,2013-07-06 22:22:00,
2013-07-07 00:30:00,64.4,57.7,30.32,SW,227,0.0,2.0,79,0.00,,,0.00,meteohub,2013-07-06 22:30:00,
2013-07-07 00:37:00,64.0,57.4,30.33,SW,227,0.0,1.0,79,0.00,,,0.00,meteohub,2013-07-06 22:37:00,
2013-07-07 00:42:00,64.0,57.7,30.32,SW,227,0.0,1.0,80,0.00,,,0.00,meteohub,2013-07-06 22:42:00,
2013-07-07 00:50:00,63.9,57.6,30.32,SW,227,0.0,0.0,80,0.00,,,0.00,meteohub,2013-07-06 22:50:00,
2013-07-07 00:57:00,63.5,57.2,30.32,SW,227,0.0,0.0,80,0.00,,,0.00,meteohub,2013-07-06 22:57:00,
2013-07-07 01:05:00,63.3,57.4,30.32,SW,227,0.0,1.0,81,0.00,,,0.00,meteohub,2013-07-06 23:05:00,
2013-07-07 01:12:00,63.1,57.6,30.32,SW,227,0.0,1.0,82,0.00,,,0.00,meteohub,2013-07-06 23:12:00,
2013-07-07 01:17:00,63.0,57.4,30.32,SSW,207,0.0,1.0,82,0.00,,,0.00,meteohub,2013-07-06 23:17:00,
2013-07-07 01:27:00,62.8,57.2,30.33,SSW,206,0.0,1.0,82,0.00,,,0.00,meteohub,2013-07-06 23:27:00,
2013-07-07 01:39:00,62.8,57.2,30.32,SSW,206,0.0,1.0,82,0.00,,,0.00,meteohub,2013-07-06 23:39:00,
2013-07-07 01:45:00,62.4,56.8,30.33,SSW,206,0.0,1.0,82,0.00,,,0.00,meteohub,2013-07-06 23:45:00,
2013-07-07 01:53:00,62.6,57.0,30.33,SSW,206,0.0,1.0,82,0.00,,,0.00,meteohub,2013-07-06 23:53:00,
2013-07-07 02:00:00,62.6,57.0,30.33,SSW,206,0.0,1.0,82,0.00,,,0.00,meteohub,2013-07-07 00:00:00,
2013-07-07 02:08:00,62.6,57.0,30.33,SSW,206,0.0,1.0,82,0.00,,,0.00,meteohub,2013-07-07 00:08:00,
2013-07-07 02:15:00,62.6,57.0,30.33,SSW,206,0.0,1.0,82,0.00,,,0.00,meteohub,2013-07-07 00:15:00,
2013-07-07 02:22:00,62.4,56.8,30.33,SSW,206,0.0,1.0,82,0.00,,,0.00,meteohub,2013-07-07 00:22:00,
2013-07-07 02:27:00,62.4,56.8,30.33,SSW,206,0.0,1.0,82,0.00,,,0.00,meteohub,2013-07-07 00:27:00,
2013-07-07 02:32:00,62.4,56.8,30.32,SSW,206,0.0,2.0,82,0.00,,,0.00,meteohub,2013-07-07 00:32:00,
2013-07-07 02:40:00,62.4,56.8,30.32,SSW,206,0.0,2.0,82,0.00,,,0.00,meteohub,2013-07-07 00:40:00,
2013-07-07 02:47:00,62.2,56.7,30.32,SSW,206,0.0,0.0,82,0.00,,,0.00,meteohub,2013-07-07 00:47:00,
2013-07-07 02:55:00,62.1,56.8,30.32,SSW,206,0.0,0.0,83,0.00,,,0.00,meteohub,2013-07-07 00:55:00,
2013-07-07 03:02:00,61.9,56.7,30.32,SSW,206,0.0,1.0,83,0.00,,,0.00,meteohub,2013-07-07 01:02:00,
2013-07-07 03:12:00,61.5,56.3,30.31,SSE,163,2.0,2.0,83,0.00,,,0.00,meteohub,2013-07-07 01:12:00,
2013-07-07 03:17:00,61.5,56.3,30.31,South,171,0.0,4.0,83,0.00,,,0.00,meteohub,2013-07-07 01:17:00,
2013-07-07 03:22:00,61.5,56.3,30.31,South,171,0.0,4.0,83,0.00,,,0.00,meteohub,2013-07-07 01:22:00,
2013-07-07 03:27:00,61.3,56.1,30.31,South,171,0.0,4.0,83,0.00,,,0.00,meteohub,2013-07-07 01:27:00,
2013-07-07 03:32:00,61.3,56.1,30.31,South,171,0.0,3.0,83,0.00,,,0.00,meteohub,2013-07-07 01:32:00,
2013-07-07 03:37:00,61.3,56.1,30.31,South,171,0.0,1.0,83,0.00,,,0.00,meteohub,2013-07-07 01:37:00,
2013-07-07 03:45:00,61.3,56.1,30.31,South,173,1.0,1.0,83,0.00,,,0.00,meteohub,2013-07-07 01:45:00,
2013-07-07 03:52:00,61.3,56.1,30.31,South,169,0.0,2.0,83,0.00,,,0.00,meteohub,2013-07-07 01:52:00,
2013-07-07 04:00:00,61.2,55.9,30.31,South,169,0.0,2.0,83,0.00,,,0.00,meteohub,2013-07-07 02:00:00,
2013-07-07 04:05:00,61.0,55.8,30.31,South,174,0.0,1.0,83,0.00,,,0.00,meteohub,2013-07-07 02:05:00,
2013-07-07 04:15:00,61.0,55.8,30.31,South,174,0.0,0.0,83,0.00,,,0.00,meteohub,2013-07-07 02:15:00,
2013-07-07 04:22:00,60.6,55.8,30.31,South,174,0.0,1.0,84,0.00,,,0.00,meteohub,2013-07-07 02:22:00,
2013-07-07 04:27:00,60.4,55.6,30.31,South,174,0.0,1.0,84,0.00,,,0.00,meteohub,2013-07-07 02:27:00,
2013-07-07 04:32:00,60.3,55.4,30.31,South,174,0.0,1.0,84,0.00,,,0.00,meteohub,2013-07-07 02:32:00,
2013-07-07 04:37:00,60.1,55.6,30.31,South,174,0.0,0.0,85,0.00,,,0.00,meteohub,2013-07-07 02:37:00,
2013-07-07 04:42:00,59.9,55.4,30.31,South,174,0.0,0.0,85,0.00,,,0.00,meteohub,2013-07-07 02:42:00,
2013-07-07 04:47:00,59.7,55.2,30.31,South,174,0.0,0.0,85,0.00,,,0.00,meteohub,2013-07-07 02:47:00,
2013-07-07 04:52:00,59.5,55.0,30.31,South,174,0.0,0.0,85,0.00,,,0.00,meteohub,2013-07-07 02:52:00,
2013-07-07 04:57:00,59.4,55.2,30.31,South,174,0.0,0.0,86,0.00,,,0.00,meteohub,2013-07-07 02:57:00,
2013-07-07 05:02:00,59.0,54.9,30.31,South,174,0.0,0.0,86,0.00,,,0.00,meteohub,2013-07-07 03:02:00,
2013-07-07 05:17:00,59.0,55.2,30.31,South,174,0.0,0.0,87,0.00,,,0.00,meteohub,2013-07-07 03:17:00,
2013-07-07 05:25:00,59.0,55.2,30.31,South,174,0.0,0.0,87,0.00,,,0.00,meteohub,2013-07-07 03:25:00,
2013-07-07 05:32:00,58.8,55.0,30.31,South,174,0.0,0.0,87,0.00,,,0.00,meteohub,2013-07-07 03:32:00,
2013-07-07 05:37:00,58.8,55.2,30.31,South,174,0.0,0.0,88,0.00,,,0.00,meteohub,2013-07-07 03:37:00,
2013-07-07 05:52:00,58.8,55.2,30.31,South,174,0.0,0.0,88,0.00,,,0.00,meteohub,2013-07-07 03:52:00,
2013-07-07 06:00:00,58.8,55.2,30.31,South,174,0.0,0.0,88,0.00,,,0.00,meteohub,2013-07-07 04:00:00,
2013-07-07 06:02:00,58.8,55.2,30.31,South,174,0.0,0.0,88,0.00,,,0.00,meteohub,2013-07-07 04:02:00,
2013-07-07 06:07:00,59.2,55.6,30.31,South,174,0.0,0.0,88,0.00,,,0.00,meteohub,2013-07-07 04:07:00,
2013-07-07 06:12:00,59.2,55.6,30.31,South,174,0.0,0.0,88,0.00,,,0.00,meteohub,2013-07-07 04:12:00,
2013-07-07 06:17:00,59.4,55.4,30.31,South,174,0.0,0.0,87,0.00,,,0.00,meteohub,2013-07-07 04:17:00,
2013-07-07 06:22:00,59.5,55.4,30.31,South,174,0.0,0.0,86,0.00,,,0.00,meteohub,2013-07-07 04:22:00,
2013-07-07 06:27:00,59.7,55.6,30.32,South,174,0.0,0.0,86,0.00,,,0.00,meteohub,2013-07-07 04:27:00,
2013-07-07 06:32:00,60.1,55.6,30.32,South,174,0.0,1.0,85,0.00,,,0.00,meteohub,2013-07-07 04:32:00,
2013-07-07 06:37:00,60.3,55.8,30.32,South,174,0.0,1.0,85,0.00,,,0.00,meteohub,2013-07-07 04:37:00,
2013-07-07 06:47:00,60.4,55.6,30.32,South,175,0.0,1.0,84,0.00,,,0.00,meteohub,2013-07-07 04:47:00,
2013-07-07 06:52:00,60.6,55.8,30.31,SSE,163,0.0,3.0,84,0.00,,,0.00,meteohub,2013-07-07 04:52:00,
2013-07-07 06:57:00,61.0,56.1,30.32,SE,144,5.0,5.0,84,0.00,,,0.00,meteohub,2013-07-07 04:57:00,
2013-07-07 07:02:00,61.0,55.8,30.32,SE,145,0.0,5.0,83,0.00,,,0.00,meteohub,2013-07-07 05:02:00,
2013-07-07 07:07:00,61.3,56.5,30.32,SW,226,0.0,5.0,84,0.00,,,0.00,meteohub,2013-07-07 05:07:00,
2013-07-07 07:12:00,61.5,55.9,30.32,SW,226,0.0,5.0,82,0.00,,,0.00,meteohub,2013-07-07 05:12:00,
2013-07-07 07:17:00,62.1,56.1,30.32,SW,226,0.0,2.0,81,0.00,,,0.00,meteohub,2013-07-07 05:17:00,
2013-07-07 07:22:00,62.2,56.3,30.32,SW,226,0.0,2.0,81,0.00,,,0.00,meteohub,2013-07-07 05:22:00,
2013-07-07 07:27:00,62.2,56.3,30.32,SW,226,0.0,6.0,81,0.00,,,0.00,meteohub,2013-07-07 05:27:00,
2013-07-07 07:32:00,62.4,56.5,30.32,SW,226,0.0,6.0,81,0.00,,,0.00,meteohub,2013-07-07 05:32:00,
2013-07-07 07:37:00,62.8,56.5,30.32,SW,226,2.0,7.0,80,0.00,,,0.00,meteohub,2013-07-07 05:37:00,
2013-07-07 07:42:00,63.0,56.3,30.32,SW,226,2.0,7.0,79,0.00,,,0.00,meteohub,2013-07-07 05:42:00,
2013-07-07 07:47:00,63.3,56.3,30.32,SW,226,0.0,7.0,78,0.00,,,0.00,meteohub,2013-07-07 05:47:00,
2013-07-07 07:52:00,63.7,56.7,30.32,SW,226,0.0,4.0,78,0.00,,,0.00,meteohub,2013-07-07 05:52:00,
2013-07-07 08:02:00,63.9,56.5,30.33,SW,226,2.0,5.0,77,0.00,,,0.00,meteohub,2013-07-07 06:02:00,
2013-07-07 08:07:00,64.0,56.3,30.33,SW,226,1.0,5.0,76,0.00,,,0.00,meteohub,2013-07-07 06:07:00,
2013-07-07 08:12:00,64.2,56.8,30.33,SW,226,1.0,5.0,77,0.00,,,0.00,meteohub,2013-07-07 06:12:00,
2013-07-07 08:17:00,64.4,56.7,30.33,SW,226,2.0,5.0,76,0.00,,,0.00,meteohub,2013-07-07 06:17:00,
2013-07-07 08:22:00,64.6,56.8,30.33,SW,226,0.0,6.0,76,0.00,,,0.00,meteohub,2013-07-07 06:22:00,
2013-07-07 08:32:00,64.6,56.5,30.33,SW,226,2.0,4.0,75,0.00,,,0.00,meteohub,2013-07-07 06:32:00,
2013-07-07 08:37:00,64.6,56.5,30.33,SW,226,1.0,6.0,75,0.00,,,0.00,meteohub,2013-07-07 06:37:00,
2013-07-07 08:47:00,64.9,56.5,30.34,SW,226,4.0,6.0,74,0.00,,,0.00,meteohub,2013-07-07 06:47:00,
2013-07-07 08:52:00,65.3,56.8,30.34,SW,226,2.0,6.0,74,0.00,,,0.00,meteohub,2013-07-07 06:52:00,
2013-07-07 09:02:00,65.8,57.4,30.34,SW,226,0.0,8.0,74,0.00,,,0.00,meteohub,2013-07-07 07:02:00,
2013-07-07 09:07:00,66.2,57.2,30.34,SW,226,1.0,8.0,73,0.00,,,0.00,meteohub,2013-07-07 07:07:00,
2013-07-07 09:17:00,67.8,57.2,30.34,SW,225,2.0,5.0,69,0.00,,,0.00,meteohub,2013-07-07 07:17:00,
2013-07-07 09:22:00,67.6,57.9,30.34,SW,226,2.0,5.0,71,0.00,,,0.00,meteohub,2013-07-07 07:22:00,
2013-07-07 09:32:00,67.6,57.9,30.34,SW,226,1.0,6.0,71,0.00,,,0.00,meteohub,2013-07-07 07:32:00,
2013-07-07 09:37:00,68.4,58.3,30.34,SW,226,1.0,6.0,70,0.00,,,0.00,meteohub,2013-07-07 07:37:00,
2013-07-07 09:42:00,68.7,57.7,30.34,SW,226,2.0,6.0,68,0.00,,,0.00,meteohub,2013-07-07 07:42:00,
2013-07-07 09:52:00,69.3,57.9,30.34,SW,226,1.0,7.0,67,0.00,,,0.00,meteohub,2013-07-07 07:52:00,
2013-07-07 09:57:00,69.4,58.8,30.34,SW,226,1.0,7.0,69,0.00,,,0.00,meteohub,2013-07-07 07:57:00,
2013-07-07 10:07:00,69.8,57.0,30.34,SW,226,0.0,7.0,64,0.00,,,0.00,meteohub,2013-07-07 08:07:00,
2013-07-07 10:17:00,70.2,57.4,30.34,SW,226,0.0,9.0,64,0.00,,,0.00,meteohub,2013-07-07 08:17:00,
2013-07-07 10:27:00,70.3,57.2,30.34,SW,226,4.0,9.0,63,0.00,,,0.00,meteohub,2013-07-07 08:27:00,
2013-07-07 10:32:00,70.3,58.1,30.34,SW,226,1.0,8.0,65,0.00,,,0.00,meteohub,2013-07-07 08:32:00,
2013-07-07 10:42:00,70.5,57.4,30.34,SW,226,3.0,8.0,63,0.00,,,0.00,meteohub,2013-07-07 08:42:00,
2013-07-07 10:47:00,70.5,56.8,30.34,SW,226,1.0,8.0,62,0.00,,,0.00,meteohub,2013-07-07 08:47:00,
2013-07-07 10:57:00,70.5,56.5,30.34,SW,226,4.0,8.0,61,0.00,,,0.00,meteohub,2013-07-07 08:57:00,
2013-07-07 11:07:00,70.7,57.0,30.34,SW,226,5.0,10.0,62,0.00,,,0.00,meteohub,2013-07-07 09:07:00,
2013-07-07 11:17:00,70.5,56.8,30.34,SW,226,0.0,8.0,62,0.00,,,0.00,meteohub,2013-07-07 09:17:00,
2013-07-07 11:22:00,71.1,56.5,30.34,SW,226,1.0,8.0,60,0.00,,,0.00,meteohub,2013-07-07 09:22:00,
2013-07-07 11:27:00,71.8,56.7,30.34,SW,226,1.0,7.0,59,0.00,,,0.00,meteohub,2013-07-07 09:27:00,
2013-07-07 11:32:00,72.1,57.6,30.34,SW,226,7.0,7.0,60,0.00,,,0.00,meteohub,2013-07-07 09:32:00,
2013-07-07 11:37:00,71.8,56.1,30.34,SW,226,4.0,11.0,58,0.00,,,0.00,meteohub,2013-07-07 09:37:00,
2013-07-07 11:42:00,71.2,56.7,30.34,SW,227,1.0,11.0,60,0.00,,,0.00,meteohub,2013-07-07 09:42:00,
2013-07-07 11:47:00,71.1,55.9,30.34,SW,226,0.0,11.0,59,0.00,,,0.00,meteohub,2013-07-07 09:47:00,
2013-07-07 11:57:00,71.6,56.1,30.34,SW,227,3.0,6.0,58,0.00,,,0.00,meteohub,2013-07-07 09:57:00,
2013-07-07 12:02:00,71.4,56.3,30.34,SW,226,2.0,6.0,59,0.00,,,0.00,meteohub,2013-07-07 10:02:00,
2013-07-07 12:12:00,72.5,55.9,30.34,SW,227,5.0,8.0,56,0.00,,,0.00,meteohub,2013-07-07 10:12:00,
2013-07-07 12:17:00,72.3,56.7,30.34,SW,226,0.0,8.0,58,0.00,,,0.00,meteohub,2013-07-07 10:17:00,
2013-07-07 12:27:00,72.3,55.8,30.34,SW,227,1.0,8.0,56,0.00,,,0.00,meteohub,2013-07-07 10:27:00,
2013-07-07 12:32:00,72.1,55.6,30.34,SW,227,4.0,8.0,56,0.00,,,0.00,meteohub,2013-07-07 10:32:00,
2013-07-07 12:37:00,72.1,56.1,30.35,SW,226,1.0,9.0,57,0.00,,,0.00,meteohub,2013-07-07 10:37:00,
2013-07-07 12:42:00,72.3,55.8,30.34,SW,226,4.0,9.0,56,0.00,,,0.00,meteohub,2013-07-07 10:42:00,
2013-07-07 12:47:00,72.3,54.7,30.34,SW,226,0.0,8.0,54,0.00,,,0.00,meteohub,2013-07-07 10:47:00,
2013-07-07 12:52:00,72.7,54.0,30.34,SW,226,0.0,6.0,52,0.00,,,0.00,meteohub,2013-07-07 10:52:00,
2013-07-07 12:57:00,73.0,56.5,30.34,SW,227,1.0,6.0,56,0.00,,,0.00,meteohub,2013-07-07 10:57:00,
2013-07-07 13:02:00,72.5,54.0,30.34,SSE,151,7.0,13.0,52,0.00,,,0.00,meteohub,2013-07-07 11:02:00,
2013-07-07 13:07:00,72.0,54.0,30.33,SW,227,4.0,13.0,53,0.00,,,0.00,meteohub,2013-07-07 11:07:00,
2013-07-07 13:17:00,72.7,55.0,30.33,SW,227,2.0,10.0,54,0.00,,,0.00,meteohub,2013-07-07 11:17:00,
2013-07-07 13:22:00,72.9,54.7,30.34,SW,227,5.0,10.0,53,0.00,,,0.00,meteohub,2013-07-07 11:22:00,
2013-07-07 13:27:00,72.5,54.0,30.34,SW,227,5.0,9.0,52,0.00,,,0.00,meteohub,2013-07-07 11:27:00,
2013-07-07 13:32:00,72.7,54.5,30.34,SW,227,1.0,10.0,53,0.00,,,0.00,meteohub,2013-07-07 11:32:00,
2013-07-07 13:37:00,72.7,55.0,30.34,SW,227,2.0,10.0,54,0.00,,,0.00,meteohub,2013-07-07 11:37:00,
2013-07-07 13:42:00,72.7,54.5,30.34,SW,227,0.0,10.0,53,0.00,,,0.00,meteohub,2013-07-07 11:42:00,
2013-07-07 13:52:00,72.5,54.0,30.33,SW,227,1.0,7.0,52,0.00,,,0.00,meteohub,2013-07-07 11:52:00,
2013-07-07 13:57:00,72.9,54.7,30.33,SW,227,1.0,7.0,53,0.00,,,0.00,meteohub,2013-07-07 11:57:00,
2013-07-07 14:02:00,73.4,54.1,30.33,SW,227,1.0,7.0,51,0.00,,,0.00,meteohub,2013-07-07 12:02:00,
2013-07-07 14:07:00,73.4,54.1,30.33,SW,227,2.0,6.0,51,0.00,,,0.00,meteohub,2013-07-07 12:07:00,
2013-07-07 14:12:00,73.4,55.2,30.33,SW,227,2.0,6.0,53,0.00,,,0.00,meteohub,2013-07-07 12:12:00,
2013-07-07 14:22:00,73.4,54.1,30.33,SW,227,7.0,7.0,51,0.00,,,0.00,meteohub,2013-07-07 12:22:00,
2013-07-07 14:27:00,73.0,54.3,30.33,SW,227,1.0,9.0,52,0.00,,,0.00,meteohub,2013-07-07 12:27:00,
2013-07-07 14:32:00,73.6,55.4,30.33,SW,227,0.0,9.0,53,0.00,,,0.00,meteohub,2013-07-07 12:32:00,
2013-07-07 14:37:00,73.9,54.7,30.33,SW,227,2.0,9.0,51,0.00,,,0.00,meteohub,2013-07-07 12:37:00,
2013-07-07 14:42:00,74.1,53.8,30.32,SW,227,1.0,8.0,49,0.00,,,0.00,meteohub,2013-07-07 12:42:00,
2013-07-07 14:47:00,74.3,55.0,30.32,SW,227,1.0,8.0,51,0.00,,,0.00,meteohub,2013-07-07 12:47:00,
2013-07-07 14:52:00,73.9,55.2,30.32,SW,227,1.0,8.0,52,0.00,,,0.00,meteohub,2013-07-07 12:52:00,
2013-07-07 14:57:00,73.6,54.9,30.32,SW,227,1.0,8.0,52,0.00,,,0.00,meteohub,2013-07-07 12:57:00,
2013-07-07 15:02:00,73.6,54.9,30.32,SW,227,7.0,12.0,52,0.00,,,0.00,meteohub,2013-07-07 13:02:00,
2013-07-07 15:12:00,74.1,54.9,30.32,SW,227,9.0,12.0,51,0.00,,,0.00,meteohub,2013-07-07 13:12:00,
2013-07-07 15:17:00,74.1,54.9,30.32,SW,227,2.0,9.0,51,0.00,,,0.00,meteohub,2013-07-07 13:17:00,
2013-07-07 15:22:00,74.5,56.3,30.32,SW,227,8.0,9.0,53,0.00,,,0.00,meteohub,2013-07-07 13:22:00,
2013-07-07 15:27:00,74.8,55.6,30.32,SW,227,5.0,11.0,51,0.00,,,0.00,meteohub,2013-07-07 13:27:00,
2013-07-07 15:37:00,74.1,54.9,30.32,SW,227,2.0,11.0,51,0.00,,,0.00,meteohub,2013-07-07 13:37:00,
2013-07-07 15:42:00,74.5,54.1,30.32,SW,227,5.0,7.0,49,0.00,,,0.00,meteohub,2013-07-07 13:42:00,
2013-07-07 15:47:00,74.1,54.9,30.32,SW,227,1.0,8.0,51,0.00,,,0.00,meteohub,2013-07-07 13:47:00,
2013-07-07 15:52:00,74.5,54.7,30.32,SW,227,4.0,8.0,50,0.00,,,0.00,meteohub,2013-07-07 13:52:00,
2013-07-07 15:57:00,74.5,54.7,30.32,SW,227,1.0,9.0,50,0.00,,,0.00,meteohub,2013-07-07 13:57:00,
2013-07-07 16:02:00,74.7,54.9,30.32,SW,227,5.0,9.0,50,0.00,,,0.00,meteohub,2013-07-07 14:02:00,
2013-07-07 16:12:00,74.7,54.9,30.31,SW,227,6.0,9.0,50,0.00,,,0.00,meteohub,2013-07-07 14:12:00,
2013-07-07 16:22:00,74.8,53.2,30.31,SW,227,1.0,9.0,47,0.00,,,0.00,meteohub,2013-07-07 14:22:00,
2013-07-07 16:27:00,75.2,55.2,30.31,SW,227,6.0,7.0,50,0.00,,,0.00,meteohub,2013-07-07 14:27:00,
2013-07-07 16:32:00,75.6,54.5,30.31,SW,227,1.0,6.0,48,0.00,,,0.00,meteohub,2013-07-07 14:32:00,
2013-07-07 16:37:00,75.4,53.8,30.31,SW,227,7.0,7.0,47,0.00,,,0.00,meteohub,2013-07-07 14:37:00,
2013-07-07 16:47:00,74.8,53.8,30.31,SW,227,0.0,8.0,48,0.00,,,0.00,meteohub,2013-07-07 14:47:00,
2013-07-07 16:57:00,74.5,54.1,30.30,SW,227,1.0,10.0,49,0.00,,,0.00,meteohub,2013-07-07 14:57:00,
2013-07-07 17:02:00,75.0,54.5,30.30,SW,227,6.0,8.0,49,0.00,,,0.00,meteohub,2013-07-07 15:02:00,
2013-07-07 17:07:00,75.0,55.0,30.30,SW,227,2.0,7.0,50,0.00,,,0.00,meteohub,2013-07-07 15:07:00,
2013-07-07 17:12:00,75.6,55.0,30.30,SW,227,4.0,7.0,49,0.00,,,0.00,meteohub,2013-07-07 15:12:00,
2013-07-07 17:17:00,75.9,55.4,30.30,SW,227,2.0,7.0,49,0.00,,,0.00,meteohub,2013-07-07 15:17:00,
2013-07-07 17:27:00,75.7,55.2,30.30,SW,227,0.0,7.0,49,0.00,,,0.00,meteohub,2013-07-07 15:27:00,
2013-07-07 17:32:00,76.3,55.2,30.30,SW,227,3.0,7.0,48,0.00,,,0.00,meteohub,2013-07-07 15:32:00,
2013-07-07 17:37:00,75.9,54.3,30.30,SW,227,6.0,8.0,47,0.00,,,0.00,meteohub,2013-07-07 15:37:00,
2013-07-07 17:42:00,75.7,54.7,30.30,SW,227,2.0,8.0,48,0.00,,,0.00,meteohub,2013-07-07 15:42:00,
2013-07-07 17:47:00,75.7,54.7,30.29,SW,227,1.0,8.0,48,0.00,,,0.00,meteohub,2013-07-07 15:47:00,
2013-07-07 17:52:00,75.9,55.4,30.30,SW,227,1.0,8.0,49,0.00,,,0.00,meteohub,2013-07-07 15:52:00,
2013-07-07 18:02:00,75.6,55.0,30.29,SW,227,2.0,8.0,49,0.00,,,0.00,meteohub,2013-07-07 16:02:00,
2013-07-07 18:12:00,75.6,55.0,30.29,SW,227,1.0,8.0,49,0.00,,,0.00,meteohub,2013-07-07 16:12:00,
2013-07-07 18:22:00,75.2,54.1,30.29,SW,227,1.0,11.0,48,0.00,,,0.00,meteohub,2013-07-07 16:22:00,
2013-07-07 18:27:00,75.0,53.4,30.29,SW,227,0.0,11.0,47,0.00,,,0.00,meteohub,2013-07-07 16:27:00,
2013-07-07 18:32:00,75.4,53.8,30.29,SW,227,0.0,7.0,47,0.00,,,0.00,meteohub,2013-07-07 16:32:00,
2013-07-07 18:42:00,75.0,52.9,30.29,SW,227,2.0,7.0,46,0.00,,,0.00,meteohub,2013-07-07 16:42:00,
2013-07-07 18:47:00,74.8,52.7,30.29,SW,227,4.0,8.0,46,0.00,,,0.00,meteohub,2013-07-07 16:47:00,
2013-07-07 18:52:00,74.8,52.7,30.29,SW,227,1.0,8.0,46,0.00,,,0.00,meteohub,2013-07-07 16:52:00,
2013-07-07 18:57:00,74.8,53.2,30.29,SW,227,2.0,8.0,47,0.00,,,0.00,meteohub,2013-07-07 16:57:00,
2013-07-07 19:02:00,74.7,52.5,30.29,SW,227,1.0,7.0,46,0.00,,,0.00,meteohub,2013-07-07 17:02:00,
2013-07-07 19:07:00,74.5,52.9,30.29,SW,227,1.0,7.0,47,0.00,,,0.00,meteohub,2013-07-07 17:07:00,
2013-07-07 19:12:00,74.3,52.2,30.29,SW,227,1.0,7.0,46,0.00,,,0.00,meteohub,2013-07-07 17:12:00,
2013-07-07 19:17:00,74.1,53.2,30.29,SW,227,4.0,7.0,48,0.00,,,0.00,meteohub,2013-07-07 17:17:00,
2013-07-07 19:22:00,74.1,53.8,30.29,SW,227,1.0,11.0,49,0.00,,,0.00,meteohub,2013-07-07 17:22:00,
2013-07-07 19:27:00,74.3,54.0,30.29,SW,227,2.0,11.0,49,0.00,,,0.00,meteohub,2013-07-07 17:27:00,
2013-07-07 19:32:00,74.1,53.8,30.29,SW,227,6.0,8.0,49,0.00,,,0.00,meteohub,2013-07-07 17:32:00,
2013-07-07 19:37:00,73.9,53.6,30.29,SW,227,0.0,7.0,49,0.00,,,0.00,meteohub,2013-07-07 17:37:00,
2013-07-07 19:42:00,73.9,54.1,30.29,SW,227,2.0,7.0,50,0.00,,,0.00,meteohub,2013-07-07 17:42:00,
2013-07-07 19:47:00,73.8,54.5,30.29,SW,227,1.0,7.0,51,0.00,,,0.00,meteohub,2013-07-07 17:47:00,
2013-07-07 19:57:00,73.6,54.9,30.29,SW,227,2.0,5.0,52,0.00,,,0.00,meteohub,2013-07-07 17:57:00,
2013-07-07 20:07:00,72.3,54.7,30.29,SSW,192,0.0,6.0,54,0.00,,,0.00,meteohub,2013-07-07 18:07:00,
2013-07-07 20:12:00,72.0,54.9,30.29,SSW,203,2.0,6.0,55,0.00,,,0.00,meteohub,2013-07-07 18:12:00,
2013-07-07 20:17:00,71.6,54.5,30.29,SSW,196,1.0,6.0,55,0.00,,,0.00,meteohub,2013-07-07 18:17:00,
2013-07-07 20:22:00,71.4,54.9,30.29,South,182,0.0,5.0,56,0.00,,,0.00,meteohub,2013-07-07 18:22:00,
2013-07-07 20:27:00,71.1,55.0,30.30,SSE,152,0.0,5.0,57,0.00,,,0.00,meteohub,2013-07-07 18:27:00,
2013-07-07 20:37:00,70.5,55.0,30.30,SSE,158,2.0,5.0,58,0.00,,,0.00,meteohub,2013-07-07 18:37:00,
2013-07-07 20:42:00,70.3,55.4,30.30,South,189,1.0,5.0,59,0.00,,,0.00,meteohub,2013-07-07 18:42:00,
2013-07-07 20:47:00,70.0,55.0,30.30,South,172,2.0,5.0,59,0.00,,,0.00,meteohub,2013-07-07 18:47:00,
2013-07-07 20:52:00,69.6,55.0,30.30,SSE,164,2.0,5.0,60,0.00,,,0.00,meteohub,2013-07-07 18:52:00,
2013-07-07 20:57:00,69.4,54.9,30.30,SSE,159,2.0,7.0,60,0.00,,,0.00,meteohub,2013-07-07 18:57:00,
2013-07-07 21:02:00,69.3,55.2,30.30,South,170,0.0,7.0,61,0.00,,,0.00,meteohub,2013-07-07 19:02:00,
2013-07-07 21:07:00,69.1,55.0,30.30,South,172,0.0,7.0,61,0.00,,,0.00,meteohub,2013-07-07 19:07:00,
2013-07-07 21:12:00,68.5,55.9,30.30,South,173,1.0,2.0,64,0.00,,,0.00,meteohub,2013-07-07 19:12:00,
2013-07-07 21:22:00,67.8,56.1,30.30,SSW,209,0.0,5.0,66,0.00,,,0.00,meteohub,2013-07-07 19:22:00,
2013-07-07 21:32:00,67.5,55.8,30.30,SSE,159,2.0,6.0,66,0.00,,,0.00,meteohub,2013-07-07 19:32:00,
2013-07-07 21:37:00,67.1,55.8,30.31,SSW,195,0.0,6.0,67,0.00,,,0.00,meteohub,2013-07-07 19:37:00,
2013-07-07 21:42:00,66.9,55.9,30.31,SSW,195,1.0,6.0,68,0.00,,,0.00,meteohub,2013-07-07 19:42:00,
2013-07-07 21:47:00,66.7,55.8,30.31,South,190,0.0,3.0,68,0.00,,,0.00,meteohub,2013-07-07 19:47:00,
2013-07-07 21:52:00,66.6,55.6,30.31,SSE,165,0.0,2.0,68,0.00,,,0.00,meteohub,2013-07-07 19:52:00,
2013-07-07 21:57:00,66.4,55.9,30.31,South,177,0.0,2.0,69,0.00,,,0.00,meteohub,2013-07-07 19:57:00,
2013-07-07 22:02:00,66.2,55.8,30.31,South,177,0.0,2.0,69,0.00,,,0.00,meteohub,2013-07-07 20:02:00,
2013-07-07 22:07:00,66.0,55.6,30.31,South,177,0.0,1.0,69,0.00,,,0.00,meteohub,2013-07-07 20:07:00,
2013-07-07 22:17:00,65.8,55.8,30.31,South,177,0.0,1.0,70,0.00,,,0.00,meteohub,2013-07-07 20:17:00,
2013-07-07 22:22:00,65.7,55.6,30.32,South,177,0.0,1.0,70,0.00,,,0.00,meteohub,2013-07-07 20:22:00,
2013-07-07 22:32:00,65.5,55.8,30.32,SSE,165,0.0,1.0,71,0.00,,,0.00,meteohub,2013-07-07 20:32:00,
2013-07-07 22:42:00,65.5,55.8,30.32,South,169,0.0,2.0,71,0.00,,,0.00,meteohub,2013-07-07 20:42:00,
2013-07-07 22:47:00,65.3,55.2,30.32,SSE,156,0.0,3.0,70,0.00,,,0.00,meteohub,2013-07-07 20:47:00,
2013-07-07 22:57:00,65.1,55.0,30.32,SSE,164,1.0,4.0,70,0.00,,,0.00,meteohub,2013-07-07 20:57:00,
2013-07-07 23:02:00,65.1,55.0,30.32,South,169,0.0,3.0,70,0.00,,,0.00,meteohub,2013-07-07 21:02:00,
2013-07-07 23:12:00,64.9,54.5,30.32,SSE,167,0.0,3.0,69,0.00,,,0.00,meteohub,2013-07-07 21:12:00,
2013-07-07 23:17:00,64.9,54.5,30.33,SSE,167,0.0,1.0,69,0.00,,,0.00,meteohub,2013-07-07 21:17:00,
2013-07-07 23:27:00,64.8,54.7,30.33,South,170,0.0,2.0,70,0.00,,,0.00,meteohub,2013-07-07 21:27:00,
2013-07-07 23:37:00,64.6,54.5,30.33,South,175,0.0,2.0,70,0.00,,,0.00,meteohub,2013-07-07 21:37:00,
2013-07-07 23:42:00,64.4,54.3,30.33,SSE,157,4.0,4.0,70,0.00,,,0.00,meteohub,2013-07-07 21:42:00,
2013-07-07 23:47:00,64.2,54.3,30.33,SSE,156,0.0,4.0,70,0.00,,,0.00,meteohub,2013-07-07 21:47:00,
2013-07-07 23:52:00,64.0,54.1,30.33,SSE,159,0.0,4.0,70,0.00,,,0.00,meteohub,2013-07-07 21:52:00,
2013-07-07 23:57:00,64.0,54.1,30.33,SSE,159,0.0,4.0,70,0.00,,,0.00,meteohub,2013-07-07 21:57:00,